DW7348 Weather Reports


time (UTC)temp
C
wind
direction
speed
KPH
gust
KPH
rain 1hr
cm
rain 24hr
cm
rain mn
cm
humidity
%
barometer
mb
20260507104538 19 0 0.0 1.6 0.00 0.00 0.00 96 1012.1
20260507103038 19 0 0.0 3.2 0.00 0.00 0.00 96 1011.4
20260507101545 19 0 0.0 1.6 0.00 0.00 0.00 96 1011.3
20260507100043 19 296 0.0 3.2 0.00 0.00 0.00 96 1011.5
20260507094539 19 0 0.0 6.4 0.00 0.00 0.00 96 1011.7
20260507093047 19 25 0.0 4.8 0.00 0.00 0.00 96 1012.1
20260507091547 19 0 0.0 3.2 0.00 0.00 0.00 96 1012.3
20260507090047 19 0 0.0 6.4 0.00 0.00 0.00 96 1012.2
20260507084541 19 52 0.0 6.4 0.00 0.00 0.00 96 1012.5
20260507083041 19 0 0.0 3.2 0.00 0.00 0.00 96 1012.8
20260507081544 19 0 0.0 1.6 0.00 0.00 0.00 96 1012.3
20260507080039 19 0 0.0 3.2 0.00 0.00 0.00 96 1012.1
20260507074539 19 0 0.0 3.2 0.00 0.00 0.00 96 1012.3
20260507073052 19 0 0.0 8.0 0.00 0.00 0.00 95 1012.8
20260507071540 19 0 1.6 9.7 0.00 0.00 0.00 95 1012.5
20260507070042 19 0 0.0 4.8 0.00 0.00 0.00 95 1012.4
20260507064604 19 0 0.0 3.2 0.00 0.00 0.00 95 1013.8
20260507063056 19 0 0.0 3.2 0.00 0.00 0.00 95 1014.0
20260507061543 19 0 0.0 3.2 0.00 0.00 0.00 95 1013.3
20260507060041 19 0 0.0 4.8 0.00 0.00 0.00 95 1013.8
20260507054539 19 281 1.6 4.8 0.00 0.00 0.00 94 1013.1
20260507053044 20 84 1.6 3.2 0.00 0.00 0.00 94 1015.2
20260507051545 20 0 0.0 4.8 0.00 0.00 0.00 94 1014.0
20260507050044 20 0 0.0 12.9 0.00 0.00 0.00 94 1014.4
20260507044540 20 59 1.6 9.7 0.00 0.00 0.00 94 1015.0
20260507043038 20 73 0.0 9.7 0.00 0.00 0.00 94 1013.9
20260507041544 20 0 1.6 9.7 0.00 0.00 0.00 93 1014.7
20260507040052 20 100 1.6 14.5 0.00 0.00 0.00 93 1014.7
20260507034556 20 0 3.2 19.3 0.00 0.00 0.00 93 1014.1
20260507033057 20 0 0.0 11.3 0.00 0.00 0.00 92 1014.3
20260507031545 21 0 0.0 3.2 0.00 0.00 0.00 91 1014.7
20260507030039 21 0 0.0 4.8 0.00 0.00 0.00 91 1014.9
20260507024554 21 94 0.0 11.3 0.00 0.00 0.00 90 1015.2
20260507023044 21 0 1.6 9.7 0.00 0.00 0.00 89 1014.6
20260507021541 21 57 0.0 9.7 0.00 0.00 0.00 89 1014.6
20260507020039 22 0 0.0 8.0 0.00 0.00 0.00 87 1014.5
20260507014538 22 0 0.0 1.6 0.00 0.00 0.00 86 1014.0
20260507013040 23 0 0.0 1.6 0.00 0.00 0.00 84 1013.9
20260507011545 23 0 0.0 3.2 0.00 0.00 0.00 81 1014.4
20260507010043 23 0 0.0 1.6 0.00 0.00 0.00 81 1013.8
20260507004540 23 0 0.0 0.0 0.00 0.00 0.00 81 1013.8
20260507003039 23 0 0.0 0.0 0.00 0.00 0.00 80 1013.8
20260507001603 23 0 0.0 3.2 0.00 0.00 0.00 80 1014.1
20260507000038 24 0 0.0 0.0 0.00 0.00 0.00 79 1014.1
20260506234549 25 0 0.0 1.6 0.00 0.00 0.00 78 1013.7
20260506233040 25 0 0.0 3.2 0.00 0.00 0.00 77 1013.9
20260506231538 25 0 0.0 0.0 0.00 0.00 0.00 75 1013.3
20260506230039 26 0 0.0 3.2 0.00 0.00 0.00 72 1013.4
20260506224600 26 0 0.0 4.8 0.00 0.00 0.00 70 1014.0
20260506223041 26 346 1.6 6.4 0.00 0.00 0.00 65 1013.0
20260506221541 27 108 0.0 9.7 0.00 0.00 0.00 65 1014.0
20260506220045 27 104 1.6 9.7 0.00 0.00 0.00 64 1014.0
20260506214539 27 0 0.0 4.8 0.00 0.00 0.00 63 1013.3
20260506213037 28 47 1.6 9.7 0.00 0.00 0.00 63 1013.9
20260506211553 28 98 4.8 14.5 0.00 0.00 0.00 60 1013.7
20260506210046 28 95 8.0 16.1 0.00 0.00 0.00 59 1014.0
20260506204541 28 0 1.6 11.3 0.00 0.00 0.00 60 1014.2
20260506203057 28 74 1.6 12.9 0.00 0.00 0.00 58 1014.4
20260506201539 28 126 6.4 17.7 0.00 0.00 0.00 58 1014.8
20260506200037 28 147 3.2 12.9 0.00 0.00 0.00 60 1015.0
20260506194546 28 82 3.2 17.7 0.00 0.00 0.00 59 1015.4
20260506193048 28 0 1.6 16.1 0.00 0.00 0.00 59 1015.5
20260506191539 28 150 3.2 14.5 0.00 0.00 0.00 60 1015.7
20260506190039 28 61 3.2 17.7 0.00 0.00 0.00 58 1015.7
20260506184543 29 104 1.6 16.1 0.00 0.00 0.00 59 1015.9
20260506183042 28 63 6.4 24.1 0.00 0.00 0.00 60 1016.0
20260506181550 28 118 6.4 17.7 0.00 0.00 0.00 59 1016.1
20260506180040 28 55 1.6 17.7 0.00 0.00 0.00 61 1016.2
20260506174547 27 118 4.8 17.7 0.00 0.00 0.00 62 1016.1
20260506173107 26 117 0.0 12.9 0.00 0.00 0.00 64 1016.4
20260506171549 26 101 4.8 16.1 0.00 0.00 0.00 65 1016.7
20260506170041 25 122 1.6 11.3 0.00 0.00 0.00 65 1016.9
20260506164538 25 136 3.2 17.7 0.00 0.00 0.00 67 1017.1
20260506163039 24 90 6.4 22.5 0.00 0.00 0.00 69 1017.5
20260506161543 24 104 4.8 19.3 0.00 0.00 0.00 70 1017.6
20260506160046 24 74 6.4 16.1 0.00 0.00 0.00 69 1017.9
20260506154544 23 115 4.8 16.1 0.00 0.00 0.00 72 1017.9
20260506153037 23 130 8.0 25.7 0.00 0.00 0.00 72 1018.1
20260506151546 22 143 8.0 19.3 0.00 0.00 0.00 78 1017.8
20260506150048 22 109 4.8 25.7 0.00 0.00 0.00 81 1017.5
20260506144543 21 93 6.4 17.7 0.00 0.00 0.00 84 1017.5
20260506143039 21 0 1.6 11.3 0.00 0.00 0.00 86 1017.2
20260506141538 20 56 3.2 14.5 0.00 0.00 0.00 86 1017.0
20260506140038 20 0 3.2 9.7 0.00 0.00 0.00 86 1016.8
20260506134547 19 109 1.6 9.7 0.00 0.00 0.00 87 1016.4
20260506133040 18 88 3.2 12.9 0.00 0.00 0.00 88 1016.4
20260506131552 18 119 3.2 8.0 0.00 0.00 0.00 89 1016.6
20260506130041 18 89 1.6 16.1 0.00 0.00 0.00 89 1016.8
20260506124538 17 84 1.6 4.8 0.00 0.00 0.00 90 1016.6
20260506123045 17 0 0.0 0.0 0.00 0.00 0.00 90 1016.3
20260506121541 17 0 0.0 0.0 0.00 0.00 0.00 90 1016.3
20260506120040 16 0 0.0 0.0 0.00 0.00 0.00 90 1016.2
20260506114538 16 0 0.0 0.0 0.00 0.00 0.00 90 1016.1
20260506113047 16 0 0.0 0.0 0.00 0.00 0.00 89 1015.9
20260506111544 16 0 0.0 0.0 0.00 0.00 0.00 89 1015.7
20260506110041 16 0 0.0 0.0 0.00 0.00 0.00 89 1015.4